Weather History for Hattiesburg, MS

Change the Weather History Date:

Friday, September 7, 2012

  Actual Average Record
Temperature  
Mean Temperature 84 °F 79 °F  
Max Temperature 93 °F 90 °F 100 °F (1954)
Min Temperature 75 °F 69 °F 50 °F (1953)
Degree Days  
Heating Degree Days 0 0  
Month to date heating degree days 0 0  
Since 1 July heating degree days 0 0  
Cooling Degree Days 19 14  
Month to date cooling degree days 134 103  
Year to date cooling degree days 2378 1974  
Growing Degree Days 33 (Base 50)    
Moisture  
Dew Point 73 °F    
Average Humidity 72    
Maximum Humidity 94    
Minimum Humidity 49    
Precipitation  
Precipitation 0.00 in 0.13 in 0.75 in (1991)
Month to date precipitation 0.88 0.95  
Year to date precipitation 54.24 43.11  
Sea Level Pressure  
Sea Level Pressure 29.89 in    
Wind  
Wind Speed 3 mph (ESE)    
Max Wind Speed 16 mph    
Max Gust Speed -    
Visibility 10 miles    
Events      
T = Trace of Precipitation, MM = Missing Value Source: NWS Daily Summary

Daily Weather History Graph

Daily Weather History Graph

Search for Another Location

Airport:

Trip Planner

Search our weather history database for the weather conditions in past years. The results will help you decide how hot, cold, wet, or windy it might be!

Date:

Astronomy

Sep. 07, 2012 Rise Set
Actual Time 6:36 AM CDT 7:12 PM CDT
Civil Twilight 6:12 AM CDT 7:36 PM CDT
Nautical Twilight 5:43 AM CDT 8:05 PM CDT
Astronomical Twilight 5:14 AM CDT 8:34 PM CDT
Moon 11:35 PM CDT (9/7) 1:01 PM CDT (9/7)
Length of Visible Light 13h 24m
Length of Day
12h 35m
Waning Gibbous, 58% of the Moon is Illuminated
Sep 7
Waning Gibbous
Sep 8
Last Quarter
Sep 15
New
Sep 22
First Quarter
Sep 29
Full

Hourly Weather History & Observations

Time (CDT) Temp. Heat Index Dew Point Humidity Pressure Visibility Wind Dir Wind Speed Gust Speed Precip Events Conditions
12:53 AM 78.1 °F - 75.0 °F 90% 29.92 in 10.0 mi Calm Calm - N/A   Partly Cloudy
1:53 AM 77.0 °F - 73.9 °F 90% 29.91 in 10.0 mi Calm Calm - N/A   Clear
2:53 AM 77.0 °F - 75.0 °F 94% 29.92 in 10.0 mi Calm Calm - N/A   Clear
3:53 AM 75.9 °F - 73.9 °F 94% 29.92 in 9.0 mi Calm Calm - N/A   Clear
4:53 AM 75.9 °F - 73.0 °F 91% 29.92 in 10.0 mi Calm Calm - N/A   Mostly Cloudy
5:53 AM 75.9 °F - 73.9 °F 94% 29.92 in 10.0 mi Calm Calm - N/A   Mostly Cloudy
6:53 AM 75.0 °F - 73.0 °F 94% 29.93 in 8.0 mi Calm Calm - N/A   Clear
7:53 AM 75.9 °F - 73.9 °F 94% 29.94 in 6.0 mi Calm Calm - N/A   Partly Cloudy
8:53 AM 80.1 °F 85.1 °F 75.0 °F 85% 29.95 in 10.0 mi East 3.5 mph - N/A   Partly Cloudy
9:53 AM 84.0 °F 91.9 °F 75.0 °F 74% 29.96 in 10.0 mi East 5.8 mph - N/A   Scattered Clouds
10:53 AM 86.0 °F 93.8 °F 73.9 °F 67% 29.95 in 10.0 mi SSE 4.6 mph - N/A   Partly Cloudy
11:53 AM 88.0 °F 94.7 °F 72.0 °F 59% 29.94 in 10.0 mi East 5.8 mph - N/A   Clear
12:53 PM 90.0 °F 96.9 °F 72.0 °F 55% 29.93 in 10.0 mi ESE 6.9 mph - N/A   Partly Cloudy
1:53 PM 91.0 °F 98.2 °F 72.0 °F 53% 29.90 in 10.0 mi East 8.1 mph - N/A   Partly Cloudy
2:53 PM 91.9 °F 97.4 °F 70.0 °F 48% 29.87 in 10.0 mi Calm Calm - N/A   Clear
3:53 PM 91.9 °F 97.4 °F 70.0 °F 48% 29.86 in 10.0 mi Calm Calm - N/A   Clear
4:53 PM 91.0 °F 96.6 °F 70.0 °F 50% 29.84 in 10.0 mi ESE 4.6 mph - N/A   Clear
5:53 PM 90.0 °F 94.5 °F 69.1 °F 50% 29.83 in 10.0 mi East 6.9 mph - N/A   Clear
6:53 PM 87.1 °F 93.6 °F 72.0 °F 61% 29.82 in 10.0 mi SE 3.5 mph - N/A   Clear
7:53 PM 82.9 °F 89.4 °F 73.9 °F 74% 29.82 in 10.0 mi South 4.6 mph - N/A   Partly Cloudy
8:53 PM 81.0 °F 85.8 °F 73.0 °F 77% 29.85 in 10.0 mi South 5.8 mph - N/A   Clear
9:53 PM 81.0 °F 86.2 °F 73.9 °F 79% 29.85 in 10.0 mi Calm Calm - N/A   Scattered Clouds
10:53 PM 79.0 °F - 73.9 °F 84% 29.86 in 10.0 mi Calm Calm - N/A   Clear
11:53 PM 77.0 °F - 73.9 °F 90% 29.85 in 10.0 mi Calm Calm - N/A   Clear